Regional Weather Roundup
Issued by NWS

Home | Current Version | Previous Version | Graphics & Text | Print | Product List | Glossary On
Versions: 1 2 3 4 5 6 7 8 9 10 11 12 13 14 15 16 17 18 19 20 21 22 23 24 25 26 27 28 29 30 31 32 33 34 35 36 37 38 39 40 41 42 43 44 45 46 47 48 49 50
000
ASUS44 KMEG 280510
RWRTN
TENNESSEE HOURLY STATE WEATHER ROUNDUP
NATIONAL WEATHER SERVICE MEMPHIS TN
1200 AM CDT THU MAY 28 2015

TNZ002-004-019-021-049-052-054-088>092-280600-
WEST TENNESSEE

CITY           SKY/WX    TMP DP  RH WIND       PRES   REMARKS
MEMPHIS INTL   MOCLDY    70  64  83 S8        30.14R
NWS MEMPHIS      N/A     68 N/A N/A MISG        N/A
JACKSON        MOCLDY    67  64  90 CALM      30.15S
DYERSBURG      MOCLDY    70  55  60 CALM      30.15S
PARIS          CLEAR     64  64 100 SE3       30.17S
LEXINGTON      CLEAR     64  64 100 CALM      30.14F
$$

TNZ008-025-027-028-033-062-065-066-280600-
NORTH MIDDLE TENNESSEE

CITY           SKY/WX    TMP DP  RH WIND       PRES   REMARKS
NASHVILLE      CLOUDY    68  66  93 S6        30.17F
CLARKSVILLE    CLOUDY    68  67  96 CALM      30.16F
SMYRNA         CLOUDY    69  67  93 S5        30.18F
COOKEVILLE     CLEAR     70  66  88 SW3       30.19F
CROSSVILLE     CLOUDY    68  62  81 VRB3      30.23F
$$

TNZ061-075-076-078-094-096-097-280600-
SOUTH MIDDLE TENNESSEE

CITY           SKY/WX    TMP DP  RH WIND       PRES   REMARKS
FAYETTEVILLE     N/A    N/A N/A N/A MISG      30.17F
TULLAHOMA      CLOUDY    64  63  94 CALM      30.20F
WINCHESTER     MOCLDY    64  64 100 E5        30.19F
MCMINNVILLE    CLEAR     64  64 100 SW3       30.19F
COLUMBIA       PTCLDY    66  66 100 CALM      30.15F
SHELBYVILLE    MOCLDY    68  66  94 SE7       30.18F
$$

TNZ017-018-042-046-047-280600-
NORTHEAST TENNESSEE

CITY           SKY/WX    TMP DP  RH WIND       PRES   REMARKS
TRI CITIES     MOCLDY    65  60  84 CALM      30.21F
ELIZABETHTON   PTCLDY    63  59  88 E5        30.23F
$$

TNZ012-013-036-069-073-074-280600-
CENTRAL EAST TENNESSEE

CITY           SKY/WX    TMP DP  RH WIND       PRES   REMARKS
KNOXVILLE      CLOUDY    72  62  71 SW7       30.20S
OAK RIDGE      CLOUDY    72  67  84 CALM      30.21S
GATLINBURG       N/A     66  61  82 CALM      30.20S
MORRISTOWN     PTCLDY    66  63  88 CALM      30.22S
$$

TNZ083-085-099-280600-
SOUTHEAST TENNESSEE

CITY           SKY/WX    TMP DP  RH WIND       PRES   REMARKS
CHATTANOOGA    CLOUDY    71  64  78 SW6       30.22S
$$

SKY/WX REPORTED AS FAIR MEANS FEW OR NO CLOUDS BELOW
12 THOUSAND FEET.



USA.gov is the U.S. government's official web portal to all federal, state and local government web resources and services.